Location: Saint-Palais-sur-Mer
(45.6429°N, 1.0859°W)
Time: 00:13:02
(UTC+01:00)

Tiros 1 despin weight - Pass Details

Date: 11 February 2026
Orbit: 556 x 593 km, 48.2° (Epoch: 13 March)

Event Time Altitude Azimuth Distance (km) Brightness Sun altitude
Rises 00:27:59 0° 289° (WNW) 2,748 - -56.7°
Reaches altitude 10° 00:30:18 10° 282° (WNW) 1,855 - -56.8°
Maximum altitude 00:34:18 42° 211° (SSW) 818 - -57.1°
Drops below altitude 10° 00:38:20 10° 141° (SE) 1,869 - -57.3°
Sets 00:40:41 0° 134° (SE) 2,771 - -57.5°
